Regional Weather Roundup
Issued by NWS

Home | Current Version | Previous Version | Graphics & Text | Print | Product List | Glossary On
Versions: 1 2 3 4 5 6 7 8 9 10 11 12 13 14 15 16 17 18 19 20 21 22 23 24 25 26 27 28 29 30 31 32 33 34 35 36 37 38 39 40 41 42 43 44 45 46 47 48 49 50
397
ASUS43 KBIS 192110
RWRND

NORTH DAKOTA REGIONAL WEATHER ROUNDUP
NATIONAL WEATHER SERVICE BISMARCK ND
300 PM CST FRI JAN 19 2018

NOTE: "FAIR" INDICATES FEW OR NO CLOUDS BELOW 12,000 FEET WITH NO
SIGNIFICANT WEATHER AND/OR OBSTRUCTIONS TO VISIBILITY.


NDZ001>003-009>011-017-192200-
NORTHWEST NORTH DAKOTA

CITY           SKY/WX    TMP DP  RH WIND       PRES   REMARKS
WILLISTON      CLOUDY    38  28  67 SW12      29.62R
MINOT          SUNNY     41  29  62 W12       29.55S
MINOT AFB      SUNNY     40  30  68 W14       29.54S
$$

NDZ018>021-031>035-040>046-192200-
SOUTHWEST NORTH DAKOTA

CITY           SKY/WX    TMP DP  RH WIND       PRES   REMARKS
BISMARCK       MOSUNNY   44  31  60 NW9       29.60F
DICKINSON      CLOUDY    39  30  70 W20       29.61R
GARRISON         N/A     39  30  70 W8        29.58S
HETTINGER ARPT CLOUDY    38  32  79 W16       29.67R
$$

NDZ004>008-012>016-024-026-027-054-192200-
NORTHEAST NORTH DAKOTA

CITY           SKY/WX    TMP DP  RH WIND       PRES   REMARKS
GRAND FORKS    PTSUNNY   38  33  82 NW5       29.49R
GRND FRKS AFB  FAIR      41  31  68 NW9       29.50R
DEVILS LAKE    FAIR      37  30  75 W15       29.53
$$

NDZ022-023-025-028>030-036>039-047>053-192200-
SOUTHEAST NORTH DAKOTA

CITY           SKY/WX    TMP DP  RH WIND       PRES   REMARKS
FARGO          CLOUDY    40  32  73 W9        29.52R
JAMESTOWN      CLOUDY    41  31  67 NW16      29.54R
$$





USA.gov is the U.S. government's official web portal to all federal, state and local government web resources and services.